Theta_e
341 343 345 343 341 341 342 344 345 346 346 348 349 348 348 348 348 349 349 348 347 346 346 345 346 344 342 340 340 340 337 336
338 338 339 338 339 340 342 343 343 344 345 345 344 344 346 346 346 345 346 345 345 345 344 344 344 343 343 342 340 339 337 338
335 339 336 334 337 341 342 343 342 342 342 341 339 339 341 342 342 343 344 342 342 343 343 342 341 341 341 340 340 338 339 338
336 336 334 334 340 336 335 339 337 337 337 337 335 333 335 337 337 339 340 340 341 341 341 339 339 339 339 339 338 339 339 340
335 337 335 334 334 333 333 334 334 335 335 334 332 333 335 332 334 333 335 338 338 339 340 339 338 338 338 337 338 339 337 336
339 338 336 333 334 334 333 334 331 331 332 331 328 326 326 327 329 329 327 328 329 331 335 336 334 335 336 336 336 332 333 337
339 340 338 334 332 331 331 329 327 325 326 325 328 323 322 322 322 322 324 325 326 326 328 327 329 331 331 331 327 327 329 333
333 334 331 325 323 320 321 323 322 320 317 317 321 323 320 320 320 320 320 321 320 322 322 323 322 324 325 325 322 323 326 329
330 326 322 320 317 317 317 316 316 314 313 314 316 317 316 320 319 315 312 312 312 313 312 315 316 316 315 315 315 317 321 323
327 325 320 317 315 315 315 313 312 311 310 310 311 312 312 311 310 309 309 309 309 309 309 308 308 307 306 307 309 314 321 320
320 320 317 316 313 312 312 310 310 309 308 307 309 309 311 309 309 308 308 307 307 308 306 306 304 304 305 304 307 313 317 316
320 319 317 315 313 310 308 307 307 307 307 306 307 307 308 307 306 305 307 305 304 304 304 304 303 302 306 305 307 314 313 311
319 317 315 313 311 309 306 304 304 304 306 306 305 305 305 305 303 304 304 302 302 303 303 302 301 301 301 305 309 310 309 308
318 317 314 313 312 308 306 304 303 303 304 304 304 304 303 304 302 302 303 302 301 301 301 301 301 300 298 304 303 306 304 304
317 316 315 313 311 307 304 302 301 300 300 300 301 303 304 303 303 303 302 301 300 299 300 301 298 299 300 302 299 298 300 302
315 315 314 313 311 307 305 303 299 299 298 299 300 303 303 303 303 302 301 300 299 298 299 298 299 297 298 300 297 299 297 292
313 314 314 314 311 309 306 301 299 298 298 299 299 300 301 302 301 300 299 299 297 297 296 297 296 295 294 294 294 292 293 293
312 312 313 312 309 306 304 302 299 298 298 298 297 298 299 300 300 298 298 297 296 295 294 294 293 293 293 293 293 293 290 291
310 310 309 310 308 306 303 301 299 298 298 298 297 297 296 297 297 297 296 296 295 294 293 293 292 292 291 290 291 291 292 291
309 309 309 309 306 305 304 303 300 300 299 299 299 298 297 297 297 296 296 296 295 294 293 291 291 291 290 290 290 290 290 290
Wind_Speed
7 7 8 10 10 10 11 11 11 11 10 10 9 9 8 8 8 7 5 5 3 2 3 2 4 3 2 2 5 7 2 1
7 7 6 6 6 9 10 10 10 9 10 10 8 9 8 7 7 6 5 5 4 3 3 3 3 4 4 4 4 8 5 2
6 8 6 5 5 7 10 11 10 11 9 8 6 3 5 5 3 8 8 8 8 6 6 4 4 5 6 6 5 3 4 4
8 8 6 6 6 5 4 6 4 4 5 5 4 4 4 5 4 4 4 2 2 4 5 6 5 3 3 4 3 3 3 3
9 9 8 7 5 4 2 2 3 3 6 5 5 4 3 3 2 2 1 2 2 3 3 3 3 3 4 3 2 2 2 3
11 10 9 6 5 4 4 3 3 3 4 5 4 3 4 3 3 3 2 1 3 2 2 2 3 2 1 3 3 4 3 4
12 11 8 6 5 3 4 4 3 4 4 4 4 4 4 3 2 1 1 1 2 2 2 3 3 3 4 4 4 5 5 6
9 8 6 6 5 5 4 4 4 4 3 3 3 4 4 3 3 2 2 1 2 2 2 2 3 2 4 4 4 4 8 9
13 10 8 7 7 5 4 4 4 4 3 4 4 4 3 4 4 3 2 3 4 4 4 4 4 4 5 5 4 6 8 9
13 10 10 10 7 5 4 4 3 3 3 3 4 4 3 5 5 4 2 4 3 4 2 4 4 4 3 4 5 5 8 7
13 12 12 12 9 6 6 6 4 4 4 3 3 4 4 5 4 4 3 4 4 2 3 3 3 3 3 4 5 5 6 7
17 13 15 13 9 8 5 5 3 3 3 3 3 3 3 3 3 3 4 4 3 3 3 3 3 2 3 4 4 5 4 4
20 17 13 11 8 9 6 5 4 3 3 4 3 3 2 1 3 4 3 4 3 3 3 3 3 1 4 4 7 7 7 5
16 15 13 8 5 3 4 5 2 3 4 4 3 3 3 2 4 3 4 4 3 1 4 2 2 0 3 3 4 2 6 7
11 10 9 6 7 5 4 5 4 3 2 3 2 3 2 3 3 4 4 3 4 2 3 5 3 1 2 4 4 4 4 4
9 9 8 7 8 7 8 6 5 3 3 2 3 3 3 3 4 4 5 3 4 1 1 2 4 4 2 4 4 4 5 5
9 8 7 8 9 9 7 5 3 3 3 7 4 2 3 2 4 5 5 4 3 4 3 5 3 3 2 1 4 4 3 5
6 8 10 7 6 6 8 10 8 6 4 4 4 2 2 3 3 3 2 3 5 4 3 5 5 5 3 3 3 3 2 3
7 7 7 6 7 7 8 8 8 10 8 6 6 4 2 3 4 4 2 2 3 4 5 5 5 5 5 3 3 3 3 3
7 8 5 6 6 6 6 7 5 5 8 7 6 6 5 6 5 5 6 4 4 4 3 4 5 5 7 5 4 3 3 2
Wind_Direction
130 128 127 131 134 138 141 143 143 147 145 148 154 156 160 163 162 164 165 166 170 178 169 226 242 233 247 286 313 319 329 175
132 125 125 131 147 143 136 139 140 142 141 144 153 157 165 168 174 178 182 187 199 223 227 242 268 270 262 274 292 312 314 322
137 146 150 142 131 151 147 145 144 148 142 146 138 140 170 128 178 202 202 201 198 211 221 239 259 275 273 263 262 274 303 302
160 159 152 147 155 146 147 152 143 140 137 138 121 118 124 115 115 104 111 137 194 236 249 252 269 268 275 276 234 273 283 287
167 165 164 167 149 152 150 153 146 148 143 140 138 124 120 119 132 113 112 182 202 207 227 214 243 273 266 245 234 265 344 42
166 169 165 173 146 163 161 152 138 134 148 140 138 143 139 147 149 146 131 103 95 68 92 154 180 258 135 126 128 80 71 73
166 168 166 164 154 150 149 146 144 142 132 139 152 167 141 152 161 157 171 171 122 99 97 80 81 64 74 100 89 89 63 79
159 154 141 131 132 144 151 139 139 127 120 107 112 151 152 164 169 152 125 89 61 76 79 76 55 33 71 77 88 84 93 96
164 149 127 119 117 124 109 109 102 111 107 88 90 114 138 160 167 121 122 91 89 66 54 55 56 46 59 44 57 74 98 102
154 139 130 123 116 107 96 102 110 103 84 66 65 80 113 112 116 117 132 93 86 83 65 72 74 62 55 21 32 63 98 103
139 139 140 134 132 123 114 118 114 109 89 65 44 40 99 124 131 125 123 105 88 104 80 109 83 55 63 53 45 90 101 105
149 158 154 147 135 122 100 96 89 90 102 92 52 31 68 111 109 91 117 103 92 77 87 56 111 124 75 62 52 82 79 82
162 158 158 145 151 144 135 149 143 122 125 124 90 53 38 127 94 104 111 122 137 137 112 111 37 66 105 70 59 55 61 49
162 156 151 149 149 94 98 126 118 127 133 118 109 70 35 148 124 133 136 116 100 106 142 134 121 272 137 101 125 88 55 56
142 132 142 140 136 104 61 55 56 76 107 126 144 110 81 128 145 148 144 132 142 159 157 151 145 357 52 145 131 165 138 44
113 122 128 148 148 141 160 164 151 164 165 140 128 125 125 132 136 135 142 133 127 142 150 165 139 157 85 53 62 130 148 142
115 136 155 174 180 166 164 146 128 137 131 143 138 126 123 110 127 131 137 127 117 124 113 116 113 139 136 116 53 51 71 138
141 164 190 182 158 159 165 159 147 139 143 159 159 158 153 130 137 121 102 112 128 125 104 100 106 92 83 106 138 147 181 131
168 178 188 176 167 171 171 165 157 167 169 170 164 157 164 158 122 123 116 121 110 113 111 112 115 112 108 88 70 81 119 107
161 185 174 168 179 184 168 162 163 183 176 171 180 172 154 148 140 137 132 124 109 93 85 87 98 99 106 92 95 75 68 76